COSMOS 1275 DEB

Satellite information

Favourite Embed

Satellite Type and Status

DEBRISIN ORBIT

Key statistics

Satellite COSMOS 1275 DEB at a glance.

Uptime

16264

Days in orbit

Revolutions

≈ 13.8

Per day

Orbit

LEO

Low Earth Orbit

Inclination

83.1

Latest

Satellite identification and parameters

Extended collection of information and parameters for COSMOS 1275 DEB.

Object identification

Identified? True

Debris? True

Object name: COSMOS 1275 DEB

International designator: 1981-053GT

Object number (NORAD): 13799

Object ID (CCSDS): 13799

Country: COMMONWEALTH OF INDEPENDENT STATES (CIS)

Current information (Y/N): Y

RCS size: SMALL

Orbital parameters

Period: 104.398 minutes

Inclination: 83.133 deg

SMA: 7344.38 km

Apoapsis: 1031.454 km

Periapsis: 901.036 km

RAAN: 127.0882 deg

Eccentricy: 0.0088788

Argument of periapsis: 292.6787 deg

Mean anomaly: 196.5295 deg

Mean motion: 13.79335889 rev/day

Mean motion (dot): 0.00001599 rev/day2

B* drag term: 0.0014998 1/REarth

Two-line elements (TLE)

Creation date: Dec. 12, 2025, 7:16 a.m.

Reference frame: TEME

Reference center: EARTH

Epoch: Dec. 11, 2025, 9:58 p.m. UTC

TLE line 0: 0 COSMOS 1275 DEB

TLE line 1: 1 13799U 81053GT 25345.91541793 .00001599 00000-0 14998-2 0 9991

TLE line 2: 2 13799 83.1330 127.0882 0088788 292.6787 196.5295 13.79335889158183

Live tracking on map

Real-time ground track for satellite COSMOS 1275 DEB.

In-orbit conjunctions

A list of the most updated potential collisions computed for object COSMOS 1275 DEB.

Target Orbit TCA Probability of collision Miss distance Type
DELTA 1 R/B(+CAMEO) SSO 2025-01-14 22:48:59 0.0002304183 388.0 (m) ROCKET BODY
FENGYUN 1C DEB SSO 2024-07-17 18:30:19 0.0002321909 60.0 (m) DEBRIS

Associated space launch

Navigation satellite providing location information for the Tsiklon-B navigation system

COSMOS 1275 DEB was lifted into orbit during the mission ‘Kosmos-3M | Parus 27’, on board a Kosmos-3M space rocket.

The launch took place on June 4, 1981, 3:41 p.m. from 132/2.

For more information about the launch, click the button.

Launch to space Kosmos-3M | Parus 27
Kosmos-3M | Parus 27

Agency: N/A

Status: Launch Successful

Launch date: June 4, 1981, 3:41 p.m. UTC

Rocket: Kosmos-3M

Launch pad: 132/2

Location: Plesetsk Cosmodrome, Russian Federation

...

Latest news about this satellite

There are no fresh news available about this satellite. Check back as we update our databases every day.


Newsletter sign-up

Weekly statistics, charts and insights to help you stay on top of the space industry.